Find Starlink 35299

NORAD ID: 66072 Int'l Des: 2025-235 Owner: SPXS Country: US Constellation: starlink operational
LEOCIRCULAR

当前视图

正在加载3D地球...

About Starlink 35299

Starlink 35299 (NORAD 66072) is a starlink constellation satellite (v2 mini) launched Oct 19, 2025 by SPXS of US. It operates in LEO, CIRCULAR orbit with a mass of 575.00 kg.

即将过境

Passes for default location (London). Set your location on the main map for personalized predictions.

高度历史

Loading altitude history...

两行轨道根数

1 66072U 25235Q 26263.60163454 .00018344 00000-0 55278-3 0 9996
2 66072 53.1580 57.0665 0001378 88.4160 271.7000 15.34397031 52808
Epoch: Sep 20, 2026 • Age: 16 hours

当前状态

高度 468.0 km
远地点 / 近地点 N/A
速度 7.64 km/s
星下点 51.94°N, 29.67°E
发射日期 Oct 19, 2025
运行时间 0.9 years
类型 internet

技术详情

分类 Payload
质量 575.00 kg
干质量 530.00 kg
长度 0.30 m
跨度 29.00 m
形状 ? Box + pan
制造商 SPXS
平台类型 Starlink V2MO
阶段状态 In Orbit
所有者/国家 SPXS/US

Most Searched